| time (UTC) | temp F | wind direction | speed MPH | gust MPH | rain 1hr in | rain 24hr in | rain mn in | humidity % | barometer mb |
| 20260902033107 | 61 | 0 | 0.0 | 0.0 | 0.00 | 0.01 | 0.01 | 78 | 1010.9 |
| 20260902031600 | 61 | 0 | 0.0 | 0.0 | 0.00 | 0.01 | 0.01 | 80 | 1010.9 |
| 20260902030056 | 61 | 0 | 0.0 | 0.0 | 0.00 | 0.01 | 0.01 | 81 | 1010.8 |
| 20260902024608 | 62 | 0 | 0.0 | 0.0 | 0.00 | 0.01 | 0.01 | 80 | 1010.9 |
| 20260902023056 | 62 | 0 | 0.0 | 0.0 | 0.00 | 0.01 | 0.01 | 79 | 1010.8 |
| 20260902021612 | 62 | 0 | 0.0 | 0.0 | 0.00 | 0.01 | 0.01 | 78 | 1010.9 |
| 20260902020056 | 62 | 0 | 0.0 | 0.0 | 0.00 | 0.01 | 0.01 | 77 | 1010.7 |
| 20260902014558 | 63 | 0 | 0.0 | 0.0 | 0.00 | 0.01 | 0.01 | 73 | 1010.6 |
| 20260902013104 | 63 | 0 | 0.0 | 0.0 | 0.00 | 0.01 | 0.01 | 77 | 1010.7 |
| 20260902011559 | 63 | 0 | 0.0 | 0.0 | 0.00 | 0.01 | 0.01 | 77 | 1010.5 |
| 20260902004600 | 63 | 0 | 0.0 | 0.0 | 0.00 | 0.01 | 0.01 | 75 | 1010.4 |
| 20260902003104 | 64 | 0 | 0.0 | 0.0 | 0.00 | 0.01 | 0.01 | 71 | 1010.4 |
| 20260902001559 | 64 | 0 | 0.0 | 0.0 | 0.00 | 0.01 | 0.01 | 70 | 1010.3 |
| 20260902000100 | 64 | 0 | 0.0 | 0.0 | 0.00 | 0.01 | 0.01 | 70 | 1010.3 |
| 20260901234601 | 64 | 0 | 0.0 | 0.0 | 0.00 | 0.01 | 0.01 | 70 | 1010.5 |
| 20260901233105 | 64 | 0 | 0.0 | 0.0 | 0.00 | 0.01 | 0.01 | 70 | 1010.6 |
| 20260901231600 | 64 | 0 | 0.0 | 0.0 | 0.00 | 0.01 | 0.01 | 70 | 1010.6 |
| 20260901230100 | 64 | 0 | 0.0 | 0.0 | 0.00 | 0.01 | 0.01 | 71 | 1010.8 |
| 20260901224601 | 64 | 0 | 0.0 | 0.0 | 0.00 | 0.01 | 0.01 | 72 | 1010.8 |
| 20260901223100 | 64 | 0 | 0.0 | 0.0 | 0.00 | 0.01 | 0.01 | 71 | 1010.9 |
| 20260901221559 | 64 | 0 | 0.0 | 0.0 | 0.00 | 0.01 | 0.01 | 73 | 1010.9 |
| 20260901220108 | 63 | 0 | 0.0 | 0.0 | 0.00 | 0.01 | 0.01 | 75 | 1010.7 |
| 20260901214557 | 63 | 0 | 0.0 | 0.0 | 0.00 | 0.01 | 0.01 | 73 | 1010.8 |
| 20260901213100 | 63 | 0 | 0.0 | 0.0 | 0.00 | 0.01 | 0.01 | 74 | 1010.8 |
| 20260901211602 | 63 | 0 | 0.0 | 0.0 | 0.00 | 0.01 | 0.01 | 75 | 1010.8 |
| 20260901210101 | 63 | 0 | 0.0 | 0.0 | 0.00 | 0.01 | 0.01 | 77 | 1010.8 |
| 20260901204559 | 63 | 0 | 0.0 | 0.0 | 0.00 | 0.01 | 0.01 | 76 | 1011.0 |
| 20260901203105 | 63 | 0 | 0.0 | 0.0 | 0.00 | 0.01 | 0.01 | 75 | 1010.9 |
| 20260901201557 | 63 | 0 | 0.0 | 0.0 | 0.00 | 0.01 | 0.01 | 77 | 1011.0 |
| 20260901200110 | 62 | 0 | 0.0 | 0.0 | 0.00 | 0.01 | 0.01 | 78 | 1011.0 |
| 20260901194604 | 62 | 0 | 0.0 | 0.0 | 0.00 | 0.01 | 0.01 | 79 | 1011.0 |
| 20260901193109 | 61 | 0 | 0.0 | 0.0 | 0.00 | 0.01 | 0.01 | 81 | 1011.2 |
| 20260901191607 | 61 | 0 | 0.0 | 0.0 | 0.00 | 0.01 | 0.01 | 84 | 1011.4 |
| 20260901190113 | 60 | 0 | 0.0 | 0.0 | 0.00 | 0.01 | 0.01 | 85 | 1011.6 |
| 20260901184557 | 60 | 0 | 0.0 | 0.0 | 0.00 | 0.01 | 0.01 | 86 | 1011.7 |
| 20260901183101 | 59 | 0 | 0.0 | 0.0 | 0.00 | 0.01 | 0.01 | 90 | 1011.6 |
| 20260901181601 | 58 | 0 | 0.0 | 0.0 | 0.00 | 0.01 | 0.01 | 92 | 1011.7 |
| 20260901174556 | 57 | 0 | 0.0 | 0.0 | 0.01 | 0.01 | 0.01 | 94 | 1011.7 |
| 20260901173105 | 56 | 0 | 0.0 | 0.0 | 0.01 | 0.01 | 0.01 | 94 | 1011.8 |
| 20260901171610 | 56 | 0 | 0.0 | 0.0 | 0.01 | 0.01 | 0.01 | 94 | 1011.6 |
| 20260901170108 | 56 | 0 | 0.0 | 0.0 | 0.00 | 0.00 | 0.00 | 94 | 1011.6 |
| 20260901164602 | 56 | 0 | 0.0 | 0.0 | 0.00 | 0.00 | 0.00 | 94 | 1011.5 |
| 20260901163102 | 56 | 0 | 0.0 | 0.0 | 0.00 | 0.00 | 0.00 | 94 | 1011.4 |
| 20260901161559 | 56 | 0 | 0.0 | 0.0 | 0.00 | 0.00 | 0.00 | 93 | 1011.6 |
| 20260901160104 | 56 | 0 | 0.0 | 0.0 | 0.00 | 0.00 | 0.00 | 93 | 1011.4 |
| 20260901154603 | 56 | 0 | 0.0 | 0.0 | 0.00 | 0.00 | 0.00 | 93 | 1011.5 |
| 20260901153100 | 56 | 0 | 0.0 | 0.0 | 0.00 | 0.00 | 0.00 | 93 | 1011.5 |
| 20260901151606 | 56 | 0 | 0.0 | 0.0 | 0.00 | 0.00 | 0.00 | 92 | 1011.4 |
| 20260901144602 | 55 | 0 | 0.0 | 0.0 | 0.00 | 0.00 | 0.00 | 91 | 1011.0 |
| 20260901143112 | 55 | 0 | 0.0 | 0.0 | 0.00 | 0.00 | 0.00 | 90 | 1011.1 |
| 20260901141601 | 56 | 0 | 0.0 | 0.0 | 0.00 | 0.00 | 0.00 | 89 | 1010.9 |
| 20260901140108 | 56 | 0 | 0.0 | 0.0 | 0.00 | 0.00 | 0.00 | 88 | 1011.0 |
| 20260901134601 | 56 | 0 | 0.0 | 0.0 | 0.00 | 0.00 | 0.00 | 87 | 1010.9 |
| 20260901133059 | 56 | 0 | 0.0 | 0.0 | 0.00 | 0.00 | 0.00 | 87 | 1010.7 |
| 20260901131553 | 56 | 0 | 0.0 | 0.0 | 0.00 | 0.00 | 0.00 | 86 | 1010.7 |
| 20260901124600 | 56 | 0 | 0.0 | 0.0 | 0.00 | 0.00 | 0.00 | 87 | 1010.5 |
| 20260901123122 | 56 | 0 | 0.0 | 0.0 | 0.00 | 0.00 | 0.00 | 87 | 1010.7 |
| 20260901121607 | 56 | 0 | 0.0 | 0.0 | 0.00 | 0.00 | 0.00 | 87 | 1010.6 |
| 20260901120105 | 56 | 0 | 0.0 | 0.0 | 0.00 | 0.00 | 0.00 | 87 | 1010.6 |
| 20260901114558 | 56 | 0 | 0.0 | 0.0 | 0.00 | 0.00 | 0.00 | 87 | 1010.7 |
| 20260901113107 | 56 | 0 | 0.0 | 0.0 | 0.00 | 0.00 | 0.00 | 86 | 1010.7 |
| 20260901111601 | 56 | 0 | 0.0 | 0.0 | 0.00 | 0.00 | 0.00 | 86 | 1010.5 |
| 20260901110109 | 56 | 0 | 0.0 | 0.0 | 0.00 | 0.00 | 0.00 | 86 | 1010.4 |
| 20260901104603 | 56 | 0 | 0.0 | 0.0 | 0.00 | 0.00 | 0.00 | 87 | 1010.3 |
| 20260901103111 | 56 | 0 | 0.0 | 0.0 | 0.00 | 0.00 | 0.00 | 87 | 1010.5 |
| 20260901101557 | 56 | 0 | 0.0 | 0.0 | 0.00 | 0.00 | 0.00 | 86 | 1010.4 |
| 20260901100108 | 56 | 0 | 0.0 | 0.0 | 0.00 | 0.00 | 0.00 | 86 | 1010.3 |
| 20260901094558 | 56 | 0 | 0.0 | 0.0 | 0.00 | 0.00 | 0.00 | 86 | 1010.1 |
| 20260901093111 | 57 | 0 | 0.0 | 0.0 | 0.00 | 0.00 | 0.00 | 85 | 1010.1 |
| 20260901091613 | 57 | 0 | 0.0 | 0.0 | 0.00 | 0.00 | 0.00 | 85 | 1009.8 |
| 20260901090100 | 57 | 0 | 0.0 | 0.0 | 0.00 | 0.00 | 0.00 | 85 | 1009.8 |
| 20260901084603 | 58 | 0 | 0.0 | 0.0 | 0.00 | 0.00 | 0.00 | 84 | 1009.8 |
| 20260901083106 | 58 | 0 | 0.0 | 0.0 | 0.00 | 0.00 | 0.00 | 83 | 1010.0 |
| 20260901081603 | 58 | 0 | 0.0 | 0.0 | 0.00 | 0.00 | 0.00 | 83 | 1010.0 |
| 20260901080104 | 59 | 0 | 0.0 | 0.0 | 0.00 | 0.00 | 0.00 | 82 | 1009.8 |
| 20260901074601 | 59 | 0 | 0.0 | 0.0 | 0.00 | 0.00 | 0.00 | 80 | 1009.8 |
| 20260901073102 | 60 | 0 | 0.0 | 0.0 | 0.00 | 0.00 | 0.00 | 79 | 1009.6 |
| 20260901071600 | 61 | 0 | 0.0 | 0.0 | 0.00 | 0.00 | 0.00 | 77 | 1009.5 |
| 20260901070059 | 62 | 0 | 0.0 | 0.0 | 0.00 | 0.00 | 0.00 | 75 | 1009.5 |
| 20260901064607 | 63 | 0 | 0.0 | 0.0 | 0.00 | 0.00 | 0.00 | 73 | 1009.3 |
| 20260901063100 | 65 | 0 | 0.0 | 0.0 | 0.00 | 0.00 | 0.00 | 73 | 1009.0 |
| 20260901061608 | 65 | 0 | 0.0 | 0.0 | 0.00 | 0.00 | 0.00 | 73 | 1008.7 |
| 20260901060107 | 65 | 0 | 0.0 | 0.0 | 0.00 | 0.00 | 0.00 | 72 | 1008.5 |
| 20260901054608 | 66 | 0 | 0.0 | 0.0 | 0.00 | 0.00 | 0.00 | 71 | 1008.2 |
| 20260901053109 | 67 | 0 | 0.0 | 0.0 | 0.00 | 0.00 | 0.00 | 68 | 1008.1 |
| 20260901051607 | 68 | 0 | 0.0 | 0.0 | 0.00 | 0.00 | 0.00 | 65 | 1008.3 |
| 20260901044620 | 70 | 0 | 0.0 | 0.0 | 0.00 | 0.00 | 0.00 | 58 | 1008.0 |
| 20260901043103 | 71 | 0 | 0.0 | 0.0 | 0.00 | 0.00 | 0.00 | 55 | 1007.8 |
| 20260901041601 | 71 | 0 | 0.0 | 0.0 | 0.00 | 0.00 | 0.00 | 53 | 1007.8 |
| 20260901040109 | 71 | 0 | 0.0 | 0.0 | 0.00 | 0.00 | 0.00 | 53 | 1007.5 |
| 20260901034602 | 72 | 0 | 0.0 | 0.0 | 0.00 | 0.00 | 0.00 | 53 | 1007.3 |